Regional Weather Roundup
Issued by NWS Raleigh/Durham, NC

Home | Current Version | Previous Version | Text Only | Print | Product List | Glossary On
Versions: 1 2 3 4 5 6 7 8 9 10 11 12 13 14 15 16 17 18 19 20 21 22 23 24 25 26 27 28
000
ASUS42 KRAH 251510
RWRRAH
NORTH CAROLINA WEATHER ROUNDUP
NATIONAL WEATHER SERVICE RALEIGH NC
1100 AM EDT THU AUG 25 2016

NOTE: "FAIR" INDICATES FEW OR NO CLOUDS BELOW 12,000 FEET WITH NO
SIGNIFICANT WEATHER AND/OR OBSTRUCTIONS TO VISIBILITY.

NCZ001-053-055-056-065-067-251600-
WESTERN NORTH CAROLINA

CITY           SKY/WX    TMP DP  RH WIND       PRES   REMARKS
ASHEVILLE      SUNNY     78  67  68 N7        30.27F HAZE
JEFFERSON      CLOUDY    74  66  75 W6        30.31S
MORGANTON      SUNNY     75  73  93 CALM      30.27R
HICKORY        SUNNY     80  71  74 CALM      30.21S
RUTHERFORDTON    N/A     80  70  71 CALM      30.23R
MOUNT AIRY     CLOUDY    80  74  82 CALM      30.22F
BOONE          MOSUNNY   74  64  71 W13       30.32S
$$

NCZ021-022-025-041-071-084-088-251600-
CENTRAL NORTH CAROLINA

CITY           SKY/WX    TMP DP  RH WIND       PRES   REMARKS
CHARLOTTE      MOSUNNY   85  65  51 SW3       30.21R
GREENSBORO     CLOUDY    81  67  62 SW8       30.19S
WINSTON-SALEM  CLOUDY    81  67  62 VRB6      30.21S
RALEIGH-DURHAM MOSUNNY   83  63  50 SW8       30.19S
FORT BRAGG     SUNNY     84  63  49 SW3       30.18S
FAYETTEVILLE   SUNNY     85  65  51 CALM      30.18S
BURLINGTON     SUNNY     83  66  56 W8        30.19R
LAURINBURG     SUNNY     87  61  41 VRB3      30.20S
$$

NCZ011-015-027-028-043-044-047-080-103-251600-
NORTHEASTERN NORTH CAROLINA

CITY           SKY/WX    TMP DP  RH WIND       PRES   REMARKS
ROCKY MT-WILSO SUNNY     80  71  74 S6        30.19S
GREENVILLE     SUNNY     82  68  61 SW6       30.19S
WASHINGTON     SUNNY     82  66  59 CALM      30.18S
ELIZABETH CITY MOSUNNY   81  66  60 CALM      30.17F
MANTEO         MOSUNNY   80  65  60 SW3       30.18F
CAPE HATTERAS  SUNNY     85  68  56 VRB5      30.18S
$$

NCZ078-087-090-091-093-098-101-251600-
SOUTHEASTERN NORTH CAROLINA

CITY           SKY/WX    TMP DP  RH WIND       PRES   REMARKS
LUMBERTON      SUNNY     84  68  58 NW3       30.18S
GOLDSBORO      PTSUNNY   84  72  65 NW5       30.16F
KINSTON        SUNNY     84  70  61 CALM      30.18F
KENANSVILLE    NOT AVBL
NEW BERN       SUNNY     83  67  58 SE3       30.19S
CHERRY POINT   MOSUNNY   84  65  52 SE3       30.19S
BEAUFORT       SUNNY     84  68  58 N6        30.18S
JACKSONVILLE   MOSUNNY   82  67  60 CALM      30.17F
WILMINGTON     PTSUNNY   82  69  64 VRB5      30.17S
$$





USA.gov is the U.S. government's official web portal to all federal, state and local government web resources and services.